Flag for Canada Weather past 2 weeks in Cumberland County, Nova Scotia, Canada

Now
27 °F

Chilly.


Feels Like: 21 °F
Forecast: 18 / 30 °F
Wind: 6 mph from Southeast

Location: Kentville

Current Time: Mar 2, 2015 at 3:36:47 AM

Latest Report: Mar 2, 2015 at 3:00 AM


Visibility: N/A

Pressure: 30.05 "Hg

Humidity: 94%

Dew point: 26 °F

Location of Cumberland CountyLocation

Historic Weather in Cumberland County — Graph

°F

Cumberland County temperature yesterday

Maximum temperature yesterday: 30 °F (at 2:00 PM)
Minimum temperature yesterday: 5 °F (at 7:00 AM)
Average temperature yesterday: 20 °F

Past Weeks' High & Low Weather Summary

 TemperatureHumidityPressure
High41 °F (Feb 22, 9:00 AM)100% (Feb 22, 7:00 AM)30.64 "Hg (Feb 22, 7:00 AM)
Low-5 °F (Feb 24, 4:00 AM)33% (Feb 17, 3:00 PM)28.90 "Hg (Feb 15, 7:00 PM)
Average17 °F75%29.92 "Hg
* Reported Feb 15 2:00 AM — Mar 2 2:00 AM, Cumberland County, Weather by CustomWeather, © 2015

Note: Actual official high and low records may vary slightly from our data, if they occured in-between our weather recording intervals... More about our weather records

Advertising

Cumberland County weather history for previous 24 hours

 ConditionsComfort  
Time TempWeatherWind HumidityBarometerVisibility
2:00 AM
Mon, Mar 2
27 °FChilly.5 mph94%30.11 "HgN/A
1:00 AM26 °FChilly.6 mph93%30.15 "HgN/A
12:00 AM27 °FChilly.5 mph81%30.19 "HgN/A
11:00 PM
Sun, Mar 1
26 °FChilly.6 mph78%30.25 "HgN/A
10:00 PM26 °FChilly.7 mph76%30.29 "HgN/A
9:00 PM22 °FCold.2 mph84%30.33 "HgN/A
8:00 PM21 °FCold.2 mph79%30.38 "HgN/A
7:00 PM22 °FCold.No wind79%30.39 "HgN/A
6:00 PM29 °FChilly.3 mph54%30.41 "HgN/A
5:00 PM30 °FChilly.3 mph45%30.43 "HgN/A
4:00 PM30 °FChilly.5 mph48%30.46 "HgN/A
3:00 PM30 °FChilly.7 mph44%30.50 "HgN/A
2:00 PM30 °FChilly.7 mph39%30.52 "HgN/A
1:00 PM29 °FChilly.7 mph45%30.56 "HgN/A
12:00 PM26 °FChilly.6 mph50%30.58 "HgN/A
11:00 AM26 °FChilly.5 mph48%30.60 "HgN/A
10:00 AM22 °FCold.2 mph55%30.61 "HgN/A
9:00 AM15 °FCold.3 mph68%30.63 "HgN/A
8:00 AM7 °FFrigid.2 mph80%30.63 "HgN/A
7:00 AM5 °FFrigid.5 mph86%30.64 "HgN/A
6:00 AM10 °FFrigid.7 mph83%30.64 "HgN/A
5:00 AM13 °FCold.5 mph76%30.63 "HgN/A
4:00 AM8 °FFrigid.3 mph84%30.62 "HgN/A
3:00 AM7 °FFrigid.1 mph91%30.62 "HgN/A
Weather by CustomWeather, © 2015

See weather overviewHow to use our weather pages